Tracking 31027 objects as of 19-Jul-2025
HD Live streaming from Space Station
objects crossing your sky now

STARLINK-31006

Track STARLINK-31006 now!
10-day predictions
STARLINK-31006 is classified as:


NORAD ID: 59024
Int'l Code: 2024-038B
Perigee: 489.5 km
Apogee: 490.9 km
Inclination: 43.0 °
Period: 94.3 minutes
Semi major axis: 6861 km
RCS: Unknown
Launch date: February 25, 2024
Source: United States (US)
Launch site: AIR FORCE EASTERN TEST RANGE (AFETR)
Your satellite tracking list
FENGYUN 1C DEB
Track 1 satellite(s)




NASA's NSSDC Master Catalog

Two Line Element Set (TLE):
1 59024U 24038B   25199.75610641  .00000335  00000-0  21690-4 0  9996
2 59024  43.0011 217.7375 0001008 273.7486  86.3250 15.27570378 79565
Source of the keplerian elements: AFSPC